PRAETORIAN SDA_614

Last updated on Sat Oct 11 2025 00:02:05 GMT+0000 (Coordinated Universal Time)

1 65577U 25203N 25283.40318660 .00000025 00000+0 11241-4 0 9999 2 65577 81.3003 242.1620 0007796 140.0151 220.1581 13.84800586 4146
UTC large
Height (km)
Speed (km/s)
/
Latitude / Longitude
Inclination (degrees)
Orbital Period (minutes)
Azimuth
Elevation
Range (km)
Doppler Factor

Next 0 passes for location: London (51.5072 / 0.1276)

Sorry there are no passes over London.
PRAETORIAN SDA_614